Location: ?????????
(55.6553°N, 38.9075°E)
Time: 18:59:45
(UTC+00:00)

Cosmos 44 Rocket - Pass Details

Date: 18 October 2019
Orbit: 658 x 732 km, 65.1° (Epoch: 22 November)

Event Time Altitude Azimuth Distance (km) Brightness Sun altitude
Exits shadow 01:15:09 29° 331° (NNW) 1,243 4.5 -23.7°
Maximum altitude 01:17:20 50° 32° (NNE) 848 3.9 -23.4°
Drops below altitude 10° 01:21:56 10° 108° (ESE) 2,079 6.5 -22.8°
Sets 01:24:17 0° 114° (ESE) 2,986 7.3 -22.5°
